#timestamp,LO_Frequency,Hit,StdDev 
1635087615.4,286046998.6,N
1635087635.2,286046998.6,N
1635087655.1,286046998.4,N
1635087656.0,286046998.4,N
1635087675.8,286047000.0,N
1635087695.7,286047002.5,N
1635087715.5,286047001.5,N
1635087735.3,286047001.6,N
1635087755.2,286047001.9,N
1635087775.0,286047001.6,N
1635087775.9,286047001.6,N
1635087795.8,286047002.7,N
1635087815.6,286047002.6,N
1635087835.4,286047000.4,N
1635087855.3,286047000.2,N
1635087875.1,286047000.0,N
1635087895.8,286047001.2,N
1635087915.7,286047001.2,N
1635087935.5,286047001.1,N
1635087955.4,286046998.6,N
1635087975.2,286046998.3,N
1635087995.0,286046998.1,N
1635087995.9,286046998.1,N
1635088015.8,286046999.9,N
1635088035.6,286047002.2,N
1635088055.4,286047001.9,N
1635088075.3,286047001.9,N
1635088095.1,286047003.5,N
1635088115.9,286047004.3,N
1635088135.7,286047002.0,N
1635088155.5,286047001.7,N
1635088175.4,286047002.1,N
1635088195.2,286047001.9,N
1635088215.0,286047002.6,N
1635088216.0,286047002.6,N
1635088235.8,286047000.1,N
1635088255.6,286047002.7,N
1635088275.5,286047000.1,N
1635088295.3,286046999.8,N
1635088315.1,286047000.4,N
1635088335.9,286047000.3,N
1635088355.7,286047000.3,N
1635088375.6,286046998.5,N
1635088395.4,286046999.3,N
1635088415.2,286047000.6,N
1635088435.1,286047000.3,N
1635088436.0,286047000.3,N
1635088455.8,286047002.7,N
1635088475.6,286047002.1,N
1635088495.5,286047000.1,N
1635088515.3,286047001.9,N
1635088535.2,286047002.7,N
1635088555.9,286046999.8,N
1635088575.7,286047002.1,N
1635088595.6,286047002.3,N
1635088615.4,286046999.8,N
1635088635.2,286047002.5,N
1635088655.1,286047002.5,N
1635088656.0,286047002.5,N
1635088675.8,286047000.1,N
1635088695.7,286046999.9,N
1635088715.5,286047000.3,N
1635088735.3,286047000.5,N
1635088755.2,286047000.7,N
1635088775.0,286047002.3,N
1635088775.9,286047002.3,N
1635088795.8,286047002.7,N
1635088815.6,286046999.8,N
1635088835.4,286047002.7,N
1635088855.3,286047001.1,N
1635088875.1,286047000.7,N
1635088895.8,286047000.6,N
1635088915.7,286047000.3,N
1635088935.5,286046999.8,N
1635088955.4,286047000.6,N
1635088975.2,286047000.5,N
1635088995.0,286047000.5,N
1635088995.9,286047000.5,N
1635089015.8,286046998.9,N
1635089035.6,286047000.6,N
1635089055.5,286047000.7,N
1635089075.3,286047000.8,N
1635089095.1,286047000.2,N
1635089115.9,286047001.7,N
1635089135.7,286047004.0,Y
1635089155.5,286047004.3,P
1635089175.4,286047005.4,P
1635089195.2,286047003.3,N
1635089215.1,286047003.0,N
1635089216.0,286047003.0,N
1635089235.8,286047004.1,N
1635089255.6,286047003.8,N
1635089275.5,286047003.8,Y
1635089295.3,286046998.5,P
1635089315.1,286046999.3,N
1635089335.9,286046998.4,N
1635089355.7,286046998.8,N
1635089375.6,286046996.9,N
1635089395.4,286046996.6,N
1635089415.2,286046997.0,N
1635089435.1,286046997.0,N
1635089436.0,286046997.0,N
1635089455.8,286046999.4,N
1635089475.7,286046999.3,N
1635089495.5,286046996.5,N
1635089515.3,286046999.5,N
1635089535.2,286046997.1,N
1635089555.9,286046999.5,N
1635089575.7,286046996.7,N
1635089595.6,286046998.9,N
1635089615.4,286046998.9,N
1635089635.3,286046999.4,N
1635089655.1,286046999.0,N
1635089656.0,286046999.0,N
1635089675.8,286046999.2,N
1635089695.7,286046997.2,N
1635089715.5,286046999.5,N
1635089735.3,286046998.8,N
1635089755.2,286046999.0,N
1635089775.0,286046999.1,N
1635089775.9,286046999.1,N
1635089795.8,286046999.0,N
1635089815.6,286046997.3,N
1635089835.4,286046997.0,N
1635089855.3,286046998.0,N
1635089875.1,286046993.3,Y
1635089895.9,286046997.2,P
1635089915.7,286046999.2,N
1635089935.5,286046999.2,N
1635089955.4,286046998.2,N
1635089975.2,286046999.1,N
1635089995.0,286046998.9,N
1635089995.9,286046998.9,N
1635090015.8,286046999.4,N
1635090035.6,286046996.5,Y
1635090055.5,286046998.9,P
1635090075.3,286046998.1,P
1635090095.1,286047000.6,N
1635090115.9,286046999.7,N
1635090135.7,286046999.8,N
1635090155.5,286046999.8,N
1635090175.4,286046999.9,N
1635090195.2,286047000.1,N
1635090215.1,286046999.8,N
1635090216.0,286046999.8,N
1635090235.8,286047000.5,N
1635090255.6,286047000.0,N
1635090275.5,286046999.8,N
1635090295.3,286047000.2,N
1635090315.2,286047001.0,N
1635090335.9,286047001.1,N
1635090355.7,286046999.9,N
1635090375.6,286047000.9,N
1635090395.4,286047001.1,N
1635090415.2,286047001.1,N
1635090435.1,286046998.5,N
1635090436.0,286046998.5,N
1635090455.8,286046998.4,N
1635090475.7,286047001.0,N
1635090495.5,286047000.9,N
1635090515.3,286046998.6,N
1635090535.2,286047000.4,N
1635090555.0,286047000.8,N
1635090555.9,286047000.8,N
1635090575.8,286047000.4,N
1635090595.6,286047001.9,N
1635090615.4,286047001.9,N
1635090665.3,286047000.2,E
1635090675.2,286047000.6,N
1635090695.1,286047000.9,P
1635090696.0,286047000.9,P
1635090715.8,286046998.5,Y
1635090735.6,286047001.1,P
1635090755.5,286046999.0,P
1635090775.3,286046998.7,N
1635090795.2,286046998.5,N
1635090815.9,286046998.7,N
1635090835.7,286046996.6,Y
1635090855.6,286047000.4,P
1635090875.4,286046999.7,N
1635090895.3,286047001.1,N
1635090945.1,286047000.6,E
1635090955.0,286047000.8,N
1635090955.9,286047000.8,P
1635090975.8,286046998.2,P
1635090995.6,286047000.4,N
1635091015.5,286046999.9,N
1635091035.3,286047000.9,N
1635091055.1,286047000.0,N
1635091075.9,286047000.2,N
1635091095.7,286047000.3,N
1635091115.5,286047000.6,N
1635091135.4,286046998.3,N
1635091155.2,286046998.4,N
1635091175.1,286047000.9,N
1635091176.0,286047000.9,N
1635091195.8,286046998.1,N
